2023/03/01 00:00:00,74.8, 3.2
2023/03/01 00:10:00,74.8, 2.4
2023/03/01 00:20:00,74.8, 2.7
2023/03/01 00:30:00,74.8, 2.4
2023/03/01 00:40:00,74.8, 2.4
2023/03/01 00:50:00,74.8, 2.4
2023/03/01 01:00:00,74.8, 2.4
2023/03/01 01:10:00,74.8, 2.2
2023/03/01 01:20:00,74.8, 2.4
2023/03/01 01:30:00,74.8, 2.9
2023/03/01 01:40:00,74.8, 2.5
2023/03/01 01:50:00,74.8, 2.3
2023/03/01 02:00:00,74.8, 3.0
2023/03/01 02:10:00,74.8, 2.6
2023/03/01 02:20:00,74.8, 2.9
2023/03/01 02:30:00,74.7, 3.4
2023/03/01 02:40:00,74.8, 3.4
2023/03/01 02:50:00,74.8, 3.0
2023/03/01 03:00:00,74.8, 2.9
2023/03/01 03:10:00,74.8, 3.0
2023/03/01 03:20:00,74.8, 2.9
2023/03/01 03:30:00,74.7, 2.5
2023/03/01 03:40:00,74.7, 2.5
2023/03/01 03:50:00,74.8, 2.8
2023/03/01 04:00:00,74.8, 2.6
2023/03/01 04:10:00,74.8, 2.8
2023/03/01 04:20:00,74.7, 3.1
2023/03/01 04:30:00,74.7, 2.8
2023/03/01 04:40:00,74.8, 2.1
2023/03/01 04:50:00,74.8, 2.5
2023/03/01 05:00:00,74.8, 2.5
2023/03/01 05:10:00,74.8, 2.6
2023/03/01 05:20:00,74.8, 2.5
2023/03/01 05:30:00,74.8, 2.8
2023/03/01 05:40:00,74.8, 2.2
2023/03/01 05:50:00,74.8, 2.5
2023/03/01 06:00:00,74.8, 2.2
2023/03/01 06:10:00,74.8, 2.3
2023/03/01 06:20:00,74.7, 2.2
2023/03/01 06:30:00,74.7, 2.4
2023/03/01 06:40:00,74.7, 2.3
2023/03/01 06:50:00,74.7, 2.2
2023/03/01 07:00:00,74.7, 3.1
2023/03/01 07:10:00,74.6, 3.2
2023/03/01 07:20:00,74.6, 3.7
2023/03/01 07:30:00,74.6, 4.1
2023/03/01 07:40:00,74.6, 4.4
2023/03/01 07:50:00,74.6, 4.7
2023/03/01 08:00:00,74.6, 4.9
2023/03/01 08:10:00,74.5, 4.9
2023/03/01 08:20:00,74.5, 4.8
2023/03/01 08:30:00,74.5, 5.0
2023/03/01 08:40:00,74.5, 5.4
2023/03/01 08:50:00,74.5, 6.3
2023/03/01 09:00:00,74.6, 8.1
2023/03/01 09:10:00,74.7, 8.0
2023/03/01 09:20:00,74.4, 8.3
2023/03/01 09:30:00,74.0,10.6
2023/03/01 09:40:00,72.2,11.8
2023/03/01 09:50:00,72.9,10.5
2023/03/01 10:00:00,72.6,11.8
2023/03/01 10:10:00,73.5,11.4
2023/03/01 10:20:00,74.1, 9.7
2023/03/01 10:30:00,74.1, 9.2
2023/03/01 10:40:00,73.7, 9.3
2023/03/01 10:50:00,72.5, 9.9
2023/03/01 11:00:00,71.1,11.7
2023/03/01 11:10:00,71.1,12.0
2023/03/01 11:20:00,71.5,10.6
2023/03/01 11:30:00,72.8,11.6
2023/03/01 11:40:00,73.5, 9.9
2023/03/01 11:50:00,73.3,10.7
2023/03/01 12:00:00,73.1,10.4
2023/03/01 12:10:00,73.2,10.4
2023/03/01 12:20:00,73.3,10.1
2023/03/01 12:30:00,72.9, 9.4
2023/03/01 12:40:00,72.7, 9.1
2023/03/01 12:50:00,73.0, 8.5
2023/03/01 13:00:00,73.1, 7.8
2023/03/01 13:10:00,73.0, 8.3
2023/03/01 13:20:00,72.3, 8.7
2023/03/01 13:30:00,72.1, 9.5
2023/03/01 13:40:00,72.0, 9.6
2023/03/01 13:50:00,72.3, 9.3
2023/03/01 14:00:00,72.8, 8.1
2023/03/01 14:10:00,72.8, 8.2
2023/03/01 14:20:00,72.8, 7.7
2023/03/01 14:30:00,72.8, 8.5
2023/03/01 14:40:00,72.7, 8.3
2023/03/01 14:50:00,72.5, 8.9
2023/03/01 15:00:00,72.3, 9.0
2023/03/01 15:10:00,72.3, 8.7
2023/03/01 15:20:00,72.2, 9.0
2023/03/01 15:30:00,72.2, 9.4
2023/03/01 15:40:00,72.3, 8.7
2023/03/01 15:50:00,72.1, 8.5
2023/03/01 16:00:00,71.9, 8.5
2023/03/01 16:10:00,71.5, 9.5
2023/03/01 16:20:00,71.3,10.9
2023/03/01 16:30:00,71.4, 9.9
2023/03/01 16:40:00,70.9, 8.6
2023/03/01 16:50:00,71.4, 8.9
2023/03/01 17:00:00,71.4, 8.3
2023/03/01 17:10:00,71.6, 7.5
2023/03/01 17:20:00,71.7, 7.0
2023/03/01 17:30:00,71.9, 6.2
2023/03/01 17:40:00,71.7, 6.7
2023/03/01 17:50:00,71.6, 6.6
2023/03/01 18:00:00,71.5, 5.8
2023/03/01 18:10:00,71.5, 6.1
2023/03/01 18:20:00,71.6, 6.2
2023/03/01 18:30:00,71.6, 5.9
2023/03/01 18:40:00,71.7, 5.3
2023/03/01 18:50:00,71.7, 5.7
2023/03/01 19:00:00,71.7, 5.8
2023/03/01 19:10:00,71.6, 4.6
2023/03/01 19:20:00,71.6, 4.0
2023/03/01 19:30:00,71.6, 3.8
2023/03/01 19:40:00,71.6, 3.6
2023/03/01 19:50:00,71.9, 3.9
2023/03/01 20:00:00,72.0, 4.1
2023/03/01 20:10:00,71.6, 3.3
2023/03/01 20:20:00,71.4, 3.7
2023/03/01 20:30:00,71.4, 3.8
2023/03/01 20:40:00,71.2, 4.1
2023/03/01 20:50:00,71.2, 3.7
2023/03/01 21:00:00,71.2, 3.4
2023/03/01 21:10:00,71.1, 3.5
2023/03/01 21:20:00,71.1, 3.3
2023/03/01 21:30:00,71.0, 2.8
2023/03/01 21:40:00,70.9, 3.0
2023/03/01 21:50:00,71.0, 3.0
2023/03/01 22:00:00,70.9, 2.7
2023/03/01 22:10:00,71.0, 3.3
2023/03/01 22:20:00,70.8, 3.2
2023/03/01 22:30:00,70.0, 2.6
2023/03/01 22:40:00,70.1, 2.8
2023/03/01 22:50:00,70.1, 2.5
2023/03/01 23:00:00,70.1, 2.2
2023/03/01 23:10:00,70.2, 3.0
2023/03/01 23:20:00,70.2, 2.9
2023/03/01 23:30:00,70.1, 2.8
2023/03/01 23:40:00,70.2, 2.6
2023/03/01 23:50:00,70.0, 2.4
